www.pogodaiklimat.ru

Погода и климат >> Архив погоды >> Мексика >> Mexico City


АРХИВ ПОГОДЫ в Mexico City

Время (UTC), дата Ветер
(напр.,м/с)
 
Видим.   Явления Облачность Т
(С)
Тd
(С)
f
(%)
Тe
(С)
Тes
(С)
Комфортность P
(гПа)
Po
(гПа)
Тmin
(С)
Tmax
(С)
R
(мм)
R24
(мм)
S
(см)
03 13.07 СЗ 3 8000 м дым 8/1 800 м
[Cu med, cong As op]
+17.9 +11.3 65 +18 +18 тепло 1009.9 777.5
06 13.07 З 4 10 км 3/0 2000 м
[As trans]
+15.6 +12.6 82 +15 +15 по сезону 1012.0 778.6 +11.9 +23.7
09 13.07 СЗ 2 10 км мгла 10/0 2000 м
[Ac As]
+14.4 +11.9 85 +14 +14 по сезону 1012.6 777.9
12 13.07 СЗ 1 3000 м дым 5/4 750 м
[Cu Sc As trans]
+13.4 +11.8 90 +14 +14 по сезону 1015.0 778.3 +12.5 +23.7
15 13.07 СВ 2 2000 м мгла 5/5 750 м
[Cu Sc]
+17.2 +12.7 75 +18 +22 тепло 1016.9 779.1
18 13.07 СЗ 2 2000 м мгла 8/8 750 м
[Cu Sc]
+21.8 +14.5 63 +25 +29 комфорт 1015.4 778.6 +12.5 +22.5
06 14.07 штиль 0 15 км дым 5/0 2000 м
[As trans]
+13.4 +12.5 94 +13 +13 по сезону 1015.4 779.8 11
09 14.07 штиль 0 12 км дым 10/4 750 м
[Sc As trans]
+12.8 +11.1 89 +12 +12 по сезону 1015.9 778.4
12 14.07 З 1 7000 м дым {метель} 5/5 840 м
[Cu med, cong]
+12.6 +11.5 93 +13 +13 по сезону 1018.0 778.7 +12.2 +25.1
15 14.07 С 1 3000 м мгла 5/3 840 м
[Cu hum Ci fib]
+17.5 +13.0 75 +19 +25 тепло 1018.2 779.2
18 14.07 СЗ 2 2000 м мгла 8/5 840 м
[Cu med, cong Ci fib]
+22.4 +15.1 63 +26 +36 жарко 1015.7 778.6 +12.2 +23.4
21 14.07 С 3 4000 м дым 9/8 750 м
[Cu Sc As op]
+24.2 +14.0 53 +27 +28 жарко 1010.7 776.6
03 15.07 З 2 8000 м дым {морось} 6/3 750 м
[Sc diur, vesp As op]
+15.5 +13.9 90 +15 +15 по сезону 1011.9 778.3 4
06 15.07 С 2 5000 м мгла {морось} 3/0
[Cs]
+15.0 +13.5 91 +15 +15 по сезону 1013.8 778.8 4
09 15.07 СЗ 2 4000 м мгла 3/0 2000 м
[Ac As]
+13.8 +12.6 92 +13 +13 по сезону 1014.4 777.7
12 15.07 Ю 1 2000 м 3/3 750 м
[Frnb]
+12.8 +11.5 92 +13 +13 по сезону 1015.2 777.6 +12.5 +25.0
15 15.07 Ю 1 2000 м {туман} 10/10 660 м
[Cu Sc]
+15.1 +12.7 86 +16 +16 по сезону 1017.2 778.7
18 15.07 Ю 2 2000 м мгла {туман} 9/9 800 м
[Cu Sc]
+21.2 +14.5 66 +24 +26 комфорт 1016.0 778.5 +12.5 +21.8
06 16.07 СЗ 1 9000 м дым 6/0 2000 м
[As trans]
+16.2 +13.2 82 +17 +17 тепло 1010.7 778.1 +12.5 +25.8
09 16.07 СЗ 2 8000 м дым 9/4 840 м
[Cu hum As trans]
+15.2 +12.6 84 +15 +15 по сезону 1012.2 777.9
12 16.07 штиль 0 5000 м дым 9/4 840 м
[Cu hum As trans]
+14.6 +12.9 90 +14 +14 по сезону 1014.3 778.1 +14.0 +25.8
15 16.07 В 2 3000 м мгла 9/9 750 м
[Cu Sc]
+17.2 +13.3 78 +18 +18 тепло 1016.2 779.2
18 16.07 С 1 3000 м мгла 9/9 750 м
[Cu Sc]
+20.8 +15.0 69 +25 +27 комфорт 1014.5 778.5 +14.0 +21.5
21 16.07 В 2 4000 м дым 8/8 800 м
[Cu hum]
+24.2 +14.4 54 +27 +30 жарко 1009.8 776.3
00 17.07 ЮЗ 4 8000 м дым {морось} 9/4 600 м
[Sc diur, vesp As op Ci fib]
+18.2 +12.0 67 +18 +19 по сезону 1007.7 775.8 0.3
03 17.07 СЗ 3 6000 м слабая морось {туман} 10/4 750 м
[Sc As op]
+17.9 +12.6 71 +18 +18 тепло 1009.9 777.8 0.0
06 17.07 С 2 8000 м мгла {туман} 4/0 2000 м
[Ac lent]
+15.8 +13.7 87 +16 +16 тепло 1012.2 778.9 0.1
09 17.07 В 1 6000 м дым 9/9 750 м
[Sc]
+15.8 +13.4 86 +16 +16 тепло 1014.1 779.0
12 17.07 С 1 2000 м мгла {туман} 4/1 750 м
[St As op Ci]
+14.2 +13.0 92 +14 +14 по сезону 1015.8 779.2 +13.5 +25.6
15 17.07 СВ 2 3000 м мгла 8/6 750 м
[Cu Sc As trans]
+17.8 +13.6 76 +18 +21 тепло 1017.4 780.0
18 17.07 З 2 3000 м мгла 9/9 750 м
[Cu Sc]
+23.4 +15.7 62 +28 +30 душно 1014.8 779.0 +13.5 +24.2
21 17.07 Ю 3 6000 м дым 6/6 750 м
[Cu hum]
+24.5 +14.9 55 +27 +32 жарко 1010.1 776.8
06 18.07 З 1 10 км дым 6/6 840 м
[Cu hum]
+14.8 +12.7 87 +15 +15 по сезону 1014.7 780.0 +13.5 +26.0 1
12 18.07 ЮЗ 1 6000 м дым {метель} 9/5 750 м
[Sc As trans]
+12.7 +11.0 89 +13 +13 по сезону 1017.5 779.2 +12.4 +26.0
15 18.07 СВ 1 6000 м мгла 1/1 840 м
[Cu hum]
+17.6 +13.1 75 +19 +28 тепло 1017.8 779.4
18 18.07 С 3 3000 м мгла 3/3 750 м
[Cu hum]
+23.6 +13.3 52 +26 +38 жарко 1014.9 778.5 +12.4 +24.5
21 18.07 СЗ 2 6000 м дым 6/6 800 м
[Cu med, cong]
+25.0 +12.6 46 +27 +33 жарко 1009.9 776.4
00 19.07 С 5 8000 м дым 8/8 600 м
[Cu Sc]
+23.5 +13.4 53 +26 +26 жарко 1005.5 775.0 +12.4 +26.9
03 19.07 З 4 6000 м дым {дождь} 8/4 750 м
[Cb cap As op]
+17.1 +12.6 75 +17 +17 по сезону 1007.7 777.2 2
06 19.07 СЗ 2 12 км дым {дождь} 8/0 2000 м
[Ac und]
+16.2 +13.2 82 +16 +16 тепло 1010.4 778.3 2
09 19.07 С 1 12 км дым 6/0 2000 м
[Ac trans]
+15.4 +13.6 89 +16 +16 тепло 1010.9 777.1
12 19.07 СВ 1 6000 м дым 1/0
[Cc]
+13.4 +11.2 87 +14 +14 по сезону 1012.8 776.8 +12.5 +26.9
15 19.07 СВ 1 4000 м мгла 1/0
[Ci fib]
+18.4 +13.7 74 +20 +30 тепло 1014.4 777.6
18 19.07 ЮВ 2 4000 м мгла 5/5 750 м
[Cu hum]
+24.2 +15.7 59 +27 +38 жарко 1011.7 776.6 +12.5 +24.8
21 19.07 С 5 8000 м дым 9/6 800 м
[Cu med, cong As op]
+25.4 +13.5 48 +28 +29 жарко 1007.2 774.6
00 20.07 С 4 15 км дым 8/6 600 м
[Cu Sc As op]
+24.0 +12.1 47 +26 +26 жарко 1004.1 774.0 +12.5 +26.1

 

Местоположение метеостанции Mexico City (Мексика): широта 19.40 долгота -99.18 высота над уровнем моря 2303 м.

В архиве по умолчанию представлена погода в Mexico City за последнюю неделю. Архивные данные за месяц целиком и за предыдущие месяцы, начиная с января 2011 года, Вы можете получить, выбрав интересующий диапазон дат из раскрывающегося списка и нажав кнопку "Ввод!".


*Определитесь, кто Вы:
робот инопланетянин человек

Внимание! Время в таблицах - всемирное. Для получения местного времени необходимо прибавить поправку, которая в Mexico City равна -6 ч.

Смотрите также архив погоды в соседних городах и на ближайших метеорологических станциях:

Погода в Institute of Geography (Мексика) (9 км)
Погода в Toluca (Мексика) (54 км)
Погода в Cuernavaca (Мексика) (58 км)
Погода в Zacatepec (Мексика) (78 км)
Погода в Pachuca (Мексика) (93 км)
Погода в Tlaxcala (Мексика) (98 км)
Погода в Tlaxcala Airport (Мексика) (99 км)
Погода в Tulancingo (Мексика) (114 км)
Погода в Puebla (Мексика) (114 км)
Погода в Queretaro (Мексика) (183 км)

Пояснения к столбцам:

Ветер - указаны скорость ветра в м/с - средняя за 10 мин, порывы в срок и между сроками (в фигурных скобках) и направление, откуда дует ветер: С - северный, СВ - северо-восточный, В - восточный, ЮВ - юго-восточный, Ю - южный, ЮЗ - юго-западный, З - западный, СЗ - северо-западный.
Видимость - горизонтальная дальность видимости в метрах или километрах. При видимости от 1 до 10 км при отсутствии осадков обычно наблюдается дымка, при ухудшении видимости до 1 км и менее - туман. В сухую погоду видимость может ухудшаться дымом, пылью или мглою.
Явления - указаны атмосферные явления, наблюдавшиеся в срок или в последний час перед сроком; фигурными скобками обозначены явления, наблюдавшиеся между сроками (за 1-3 часа до срока); квадратными скобками обозначены град или гололедные отложения с указанием их диаметра в мм.
Облачность - указаны через наклонную черту общая и нижняя облачность в баллах и высота нижней границы облаков в метрах; квадратными скобками обозначены формы облаков: Ci - перистые, Cs - перисто-слоистые, Cc - перисто-кучевые, Ac - высококучевые, As - высокослоистые, Sc - слоисто-кучевые, Ns - слоисто-дождевые, Cu - кучевые, Cb - кучево-дождевые. Подробнее классификацию облаков см. в Атласе облаков (PDF).
T - Температура воздуха - температура, измеренная на высоте 2 м над землей.
Td - Температура точки росы - температура, при понижении до которой содержащийся в воздухе водяной пар достигнет насыщения.
f - Относительная влажность воздуха - влажноcть воздуха, измеренная на высоте 2 м над землей.
Te - Эффективная температура - температура, которую ощущает одетый по сезону человек в тени. Характеристика душности погоды. При расчете учитывается влияние влажности воздуха и скорости ветра на теплоощущения человека.
Tes - Эффективная температура на солнце - температура, которую ощущает человек, с поправкой на солнечный нагрев. Характеристика знойности погоды. Зависит от высоты солнца над горизонтом, облачности и скорости ветра. Ночью, в пасмурную погоду, а также при ветре 12 м/с и более поправка равна нулю.
P - Атмосферное давление - приведенное к уровню моря атмосферное давление.
Po - Атмосферное давление - измеренное на уровне метеостанции атмосферное давление.
Tmin - Минимальная температура - минимум температуры воздуха на высоте 2 м над землей.
Tmax - Максимальная температура - максимум температуры воздуха на высоте 2 м над землей.
R - Количество осадков - Количество выпавших осадков за период времени, мм. При наведении курсора мыши на число - период времени, за который выпало указанное количество осадков.
R24 - Количество осадков - Количество выпавших осадков за 24 часа, мм.
S - Снежный покров - Высота снежного покрова, см. При наведении курсора мыши на число - состояние снежного покрова и степень покрытия местности в баллах.